Location: Ottawa
(45.4170°N, 75.7000°W)
Time: 22:22:27
(UTC-04:00)

Amateur Radio Satellites - All Passes

Search period start: 04 August 2015 21:52
Search period end: 05 August 2015 21:52
Location: Ottawa, 45.4170°N, 75.7000°W

Satellite Date Start Highest point End Downlink Frequencies (MHz)
Time Altitude Azimuth
Cosmos 2491 04 Aug 21:54:31 22:01:18 25° 60° (ENE) 22:08:19 435.465 / 435.565
BEESAT 3 04 Aug 22:04:03 22:06:22 15° 112° (ESE) 22:08:51 437.485
VELOX 1 04 Aug 22:08:57 22:12:06 20° 64° (ENE) 22:15:22 145.980
SEEDS 04 Aug 22:10:49 22:13:38 17° 271° (W) 22:16:19 437.485
VERMONT LUNAR 04 Aug 22:10:58 22:11:25 10° 207° (SSW) 22:11:48 437.305
ZACube-1 04 Aug 22:12:16 22:16:30 76° 258° (WSW) 22:20:53 437.345
CUTE 1.7 + AOD 2 04 Aug 22:22:12 22:23:24 11° 274° (W) 22:24:22 437.475
YUBILEINY 04 Aug 22:23:35 22:25:45 11° 72° (ENE) 22:28:37 435.215
HUMSAT D 04 Aug 22:25:33 22:29:40 64° 74° (ENE) 22:33:53 437.325/437.525
AAUSAT CUBESAT 2 04 Aug 22:26:59 22:29:42 16° 271° (W) 22:32:16 437.432
FUNcube-1 04 Aug 22:32:18 22:36:24 47° 262° (W) 22:40:37 145.935
ESTCUBE 1 04 Aug 22:36:08 22:39:53 27° 67° (ENE) 22:43:43 437.505/2401.250
Oscar 11 04 Aug 22:38:41 22:42:22 26° 267° (W) 22:45:59 145.826/435.025
UKube-1 04 Aug 22:39:31 22:43:46 59° 73° (ENE) 22:48:03 .
50 SAT 04 Aug 22:44:19 22:48:03 47° 72° (ENE) 22:51:53 437.505
ISS 04 Aug 22:44:39 22:47:32 28° 351° (N) 22:50:26 145.825
TIGRISAT 04 Aug 22:45:55 22:49:27 21° 91° (E) 22:53:07 435.000
UWE-3 04 Aug 22:46:18 22:49:54 26° 267° (W) 22:53:33 435.000/436.395/437.385
ANTELSAT 04 Aug 22:49:21 22:53:07 24° 92° (E) 22:56:59 437.575/2403.000
AIST 1 04 Aug 22:51:41 22:55:54 57° 78° (ENE) 23:00:05
M-CUBED/EXP-1 PRIME 04 Aug 22:53:00 22:57:48 62° 106° (ESE) 23:02:23 437.505
HO-68 04 Aug 22:56:37 22:59:16 12° 278° (W) 23:01:22 435.675
POPSAT HIP 1 04 Aug 23:05:23 23:06:59 12° 87° (E) 23:08:48 437.405
BEESAT 2 04 Aug 23:06:05 23:10:02 49° 121° (ESE) 23:14:02 435.950
AISAT 04 Aug 23:06:10 23:10:32 76° 76° (ENE) 23:14:57 437.250
CUBEBUG 1 04 Aug 23:07:40 23:11:47 44° 71° (ENE) 23:15:56 437.445
CUBEBUG 2 04 Aug 23:12:51 23:14:36 12° 274° (W) 23:16:07 437.445
QB50P2 04 Aug 23:13:24 23:15:54 16° 89° (E) 23:18:34 145.880/145.840
DX 1 04 Aug 23:14:06 23:18:21 54° 259° (W) 23:22:38 434.975-435.025
AUBIESAT-1 04 Aug 23:18:23 23:23:10 88° 289° (WNW) 23:27:45 437.475
DELFI C3 04 Aug 23:20:09 23:22:13 13° 272° (W) 23:24:07 145.870
TISAT 1 04 Aug 23:25:17 23:27:22 14° 62° (ENE) 23:29:37 437.305
SPROUT 04 Aug 23:28:29 23:31:49 23° 66° (ENE) 23:35:15 437.525
PHONESAT 2.4 04 Aug 23:29:22 23:31:52 18° 202° (SSW) 23:34:20 2401.200-2431.200
AIST 2 04 Aug 23:29:35 23:32:46 21° 114° (ESE) 23:36:03 435.215
DUCHIFAT 1 04 Aug 23:32:32 23:35:54 23° 93° (E) 23:39:18 145.980
RS-15 04 Aug 23:37:02 23:47:36 47° 325° (NW) 23:58:34 29.354- 29.394
NANOSAT C BR1 04 Aug 23:38:22 23:41:58 27° 94° (E) 23:45:38 145.865
QB50P1 04 Aug 23:38:51 23:42:30 27° 95° (E) 23:46:11 145.935-145.965
BEESAT 3 04 Aug 23:39:51 23:43:53 61° 308° (NW) 23:47:58 437.485
UNISAT 6 04 Aug 23:40:09 23:44:53 74° 102° (ESE) 23:49:37 437.425
VELOX 1 04 Aug 23:44:08 23:48:23 46° 261° (W) 23:52:38 145.980
Cosmos 2491 04 Aug 23:50:36 23:59:21 80° 264° (W) 00:08:03 435.465 / 435.565
HUMSAT D 05 Aug 00:04:00 00:05:56 13° 273° (W) 00:07:41 437.325/437.525
YUBILEINY 05 Aug 00:12:23 00:20:53 61° 92° (E) 00:29:29 435.215
ESTCUBE 1 05 Aug 00:12:29 00:16:39 34° 264° (W) 00:20:47 437.505/2401.250
UKube-1 05 Aug 00:17:55 00:20:21 14° 271° (W) 00:22:35 .
50 SAT 05 Aug 00:20:36 00:22:56 15° 270° (W) 00:25:09 437.505
BUGSAT 1 05 Aug 00:21:05 00:25:02 47° 99° (E) 00:29:02 437.445
BEESAT 05 Aug 00:21:25 00:23:10 12° 58° (ENE) 00:25:07 436.000
ISS 05 Aug 00:21:36 00:24:34 31° 12° (NNE) 00:27:32 145.825
TIGRISAT 05 Aug 00:21:56 00:26:26 46° 289° (WNW) 00:30:56 435.000
POLYITAN 1 05 Aug 00:23:45 00:28:04 84° 103° (ESE) 00:32:22 437.675
ANTELSAT 05 Aug 00:25:37 00:30:04 41° 290° (WNW) 00:34:29 437.575/2403.000
M-CUBED/EXP-1 PRIME 05 Aug 00:28:36 00:32:06 20° 303° (WNW) 00:35:27 437.505
AIST 1 05 Aug 00:30:58 00:33:07 13° 275° (W) 00:35:03
O/OREOS (USA 219) 05 Aug 00:31:36 00:35:11 24° 104° (ESE) 00:38:54 437.305
POPSAT HIP 1 05 Aug 00:39:08 00:43:23 69° 286° (WNW) 00:47:38 437.405
SWISSCUBE 05 Aug 00:40:47 00:44:07 20° 63° (ENE) 00:47:36 437.505
BEESAT 2 05 Aug 00:44:58 00:48:20 23° 320° (NW) 00:51:40 435.950
CUBEBUG 1 05 Aug 00:45:12 00:48:23 19° 269° (W) 00:51:27 437.445
AISAT 05 Aug 00:46:10 00:47:44 11° 273° (W) 00:49:05 437.250
QB50P2 05 Aug 00:47:59 00:52:10 53° 288° (WNW) 00:56:20 145.880/145.840
AUBIESAT-1 05 Aug 00:54:40 00:57:10 14° 307° (NW) 00:59:28 437.475
TISAT 1 05 Aug 00:58:32 01:02:41 64° 259° (WSW) 01:06:51 437.305
ITUPSAT 1 05 Aug 01:03:03 01:07:04 28° 66° (ENE) 01:11:10 437.325
SPROUT 05 Aug 01:03:47 01:07:44 36° 263° (W) 01:11:42 437.525
AIST 2 05 Aug 01:06:57 01:11:05 47° 311° (NW) 01:15:14 435.215
DUCHIFAT 1 05 Aug 01:07:54 01:11:48 35° 290° (WNW) 01:15:40 145.980
NANOSAT C BR1 05 Aug 01:14:03 01:17:49 30° 292° (WNW) 01:21:32 145.865
QB50P1 05 Aug 01:14:36 01:18:21 30° 292° (WNW) 01:22:03 145.935-145.965
UNISAT 6 05 Aug 01:18:23 01:21:08 15° 299° (WNW) 01:23:43 437.425
BEESAT 3 05 Aug 01:20:55 01:22:42 12° 330° (NNW) 01:24:23 437.485
KKS-1 05 Aug 01:42:31 01:44:12 12° 60° (ENE) 01:46:05 437.445
Cosmos 2491 05 Aug 01:49:40 01:54:56 17° 284° (WNW) 01:59:43 435.465 / 435.565
RS-15 05 Aug 01:54:15 02:03:43 29° 357° (N) 02:13:31 29.354- 29.394
BEESAT 05 Aug 01:55:31 02:00:19 85° 75° (ENE) 02:05:09 436.000
BUGSAT 1 05 Aug 01:57:27 02:00:13 17° 295° (WNW) 02:02:52 437.445
ISS 05 Aug 01:57:58 02:01:14 79° 212° (SSW) 02:04:30 145.825
Gurwin Techsat 1B 05 Aug 01:58:52 01:59:30 10° 83° (E) 02:00:31 435.225
POLYITAN 1 05 Aug 02:01:49 02:03:23 12° 300° (WNW) 02:04:45 437.675
Oscar 19 05 Aug 02:02:01 02:06:47 36° 96° (E) 02:11:35 437.125/150
O/OREOS (USA 219) 05 Aug 02:10:15 02:14:27 38° 302° (WNW) 02:18:41 437.305
YUBILEINY 05 Aug 02:10:32 02:18:19 34° 295° (WNW) 02:26:01 435.215
SWISSCUBE 05 Aug 02:16:52 02:21:36 56° 259° (W) 02:26:21 437.505
Cosmos 2504 05 Aug 02:16:59 02:23:46 46° 89° (E) 02:31:09 435.465 / 435.565
JAS-2 05 Aug 02:21:51 02:24:20 12° 78° (ENE) 02:27:23 435.910
STARS 05 Aug 02:39:07 02:42:43 26° 66° (ENE) 02:46:24 437.465
ITUPSAT 1 05 Aug 02:40:21 02:44:50 38° 263° (W) 02:49:19 437.325
AIST 2 05 Aug 02:49:24 02:50:43 11° 333° (NNW) 02:51:54 435.215
MOZHAYETS 4 05 Aug 03:04:03 03:05:31 12° 59° (ENE) 03:07:12
KKS-1 05 Aug 03:15:49 03:20:14 84° 255° (WSW) 03:24:43 437.445
ITAMSAT 1 05 Aug 03:32:18 03:37:27 65° 101° (ESE) 03:42:36 435.822/435.867
Gurwin Techsat 1B 05 Aug 03:35:09 03:40:30 78° 103° (ESE) 03:45:50 435.225
ISS 05 Aug 03:35:52 03:37:13 12° 227° (SW) 03:38:28 145.825
BEESAT 05 Aug 03:37:04 03:38:54 12° 274° (W) 03:40:27 436.000
Oscar 19 05 Aug 03:41:30 03:46:05 32° 294° (WNW) 03:50:37 437.125/150
AO-7 05 Aug 03:56:08 04:02:37 25° 91° (E) 04:09:19 29.400- 29.500
JAS-2 05 Aug 04:03:21 04:11:09 61° 99° (E) 04:18:44 435.910
CUSAT 1 05 Aug 04:05:10 04:07:44 45° 98° (E) 04:10:16 437.405
Cosmos 2504 05 Aug 04:09:25 04:16:10 38° 291° (WNW) 04:23:20 435.465 / 435.565
RS-15 05 Aug 04:09:26 04:20:11 41° 30° (NNE) 04:31:27 29.354- 29.394
HORYU 2 05 Aug 04:12:20 04:15:51 23° 93° (E) 04:19:28 437.375
STARS 05 Aug 04:15:05 04:19:03 33° 264° (W) 04:23:02 437.465
DANDE 05 Aug 04:16:13 04:18:52 35° 98° (E) 04:21:19 436.750
MOZHAYETS 4 05 Aug 04:37:25 04:42:03 85° 79° (E) 04:46:46
GONETS M04 05 Aug 04:56:32 05:03:22 28° 82° (E) 05:10:27
CUBESAT XI-V 05 Aug 05:08:16 05:11:25 19° 64° (ENE) 05:14:41 437.345
ITAMSAT 1 05 Aug 05:12:50 05:16:32 20° 299° (WNW) 05:20:05 435.822/435.867
Gurwin Techsat 1B 05 Aug 05:16:29 05:19:56 17° 301° (WNW) 05:23:10 435.225
STRAND 1 05 Aug 05:45:52 05:49:02 17° 60° (ENE) 05:52:22 437.568
BEESAT 2 05 Aug 05:46:31 05:48:12 12° 30° (NNE) 05:49:58 435.950
AO-7 05 Aug 05:47:59 05:56:20 77° 292° (WNW) 06:04:37 29.400- 29.500
HORYU 2 05 Aug 05:48:25 05:52:40 40° 290° (WNW) 05:56:51 437.375
JAS-2 05 Aug 05:48:51 05:55:47 35° 298° (WNW) 06:02:31 435.910
PRISM 05 Aug 05:57:23 05:59:17 13° 62° (ENE) 06:01:23 437.425
Cubesat XI-IV 05 Aug 06:17:53 06:21:24 18° 89° (E) 06:25:05 437.490
MOZHAYETS 4 05 Aug 06:18:36 06:20:01 11° 275° (W) 06:21:10
BEESAT 3 05 Aug 06:18:58 06:22:12 23° 40° (NE) 06:25:27 437.485
RS-15 05 Aug 06:22:15 06:34:02 83° 237° (WSW) 06:46:15 29.354- 29.394
CUBESAT XI-V 05 Aug 06:43:54 06:48:29 56° 260° (W) 06:53:05 437.345
GONETS M04 05 Aug 06:50:54 06:59:34 69° 283° (WNW) 07:08:16
CUTE-I 05 Aug 07:11:19 07:16:31 52° 100° (E) 07:21:42 437.470
STRAND 1 05 Aug 07:22:34 07:27:42 75° 256° (WSW) 07:32:53 437.568
BEESAT 2 05 Aug 07:23:03 07:27:07 61° 51° (NE) 07:31:07 435.950
Cosmos 2499 05 Aug 07:23:51 07:31:07 54° 90° (E) 07:39:02 435.465 / 435.565
SO-50 05 Aug 07:28:04 07:29:24 11° 108° (ESE) 07:31:01 436.795
PRISM 05 Aug 07:30:04 07:34:15 69° 258° (WSW) 07:38:25 437.425
AO-7 05 Aug 07:42:05 07:47:59 21° 312° (NW) 07:53:37 29.400- 29.500
AIST 2 05 Aug 07:48:20 07:52:05 30° 44° (NE) 07:55:48 435.215
BEESAT 3 05 Aug 07:56:28 08:00:24 48° 239° (WSW) 08:04:14 437.485
Cubesat XI-IV 05 Aug 07:56:46 08:02:03 65° 288° (WNW) 08:07:19 437.490
DOVE 4 05 Aug 08:10:00 08:11:32 12° 86° (E) 08:13:23 437.250
M-CUBED/EXP-1 PRIME 05 Aug 08:10:20 08:12:44 15° 54° (NE) 08:15:23 437.505
CUTE 1.7 + AOD 2 05 Aug 08:27:48 08:29:11 12° 86° (E) 08:30:48 437.475
HO-68 05 Aug 08:29:03 08:34:13 22° 89° (E) 08:39:38 435.675
AUBIESAT-1 05 Aug 08:34:15 08:37:28 21° 58° (ENE) 08:40:56 437.475
PCSat 05 Aug 08:34:42 08:39:57 56° 117° (ESE) 08:45:17 145.827
CANX-2 05 Aug 08:35:54 08:38:31 16° 89° (E) 08:41:16 2200.000
RS-15 05 Aug 08:36:15 08:45:06 24° 258° (WSW) 08:53:32 29.354- 29.394
GOMX 1 05 Aug 08:41:22 08:45:38 36° 97° (E) 08:50:13 467.674
CUTE-I 05 Aug 08:52:03 08:56:18 24° 297° (WNW) 09:00:26 437.470
GONETS M04 05 Aug 08:53:19 08:58:31 16° 308° (NW) 09:03:17
BRITE-PL 05 Aug 08:53:32 08:58:01 78° 103° (ESE) 09:02:50 437.365/2234.400
O/OREOS (USA 219) 05 Aug 09:01:10 09:02:32 11° 43° (NE) 09:04:05 437.305
BEESAT 2 05 Aug 09:02:21 09:04:44 15° 248° (WSW) 09:06:57 435.950
SO-50 05 Aug 09:04:25 09:09:12 82° 125° (SE) 09:14:09 436.795
UNISAT 6 05 Aug 09:08:34 09:09:28 11° 58° (ENE) 09:10:36 437.425
Cosmos 2499 05 Aug 09:17:48 09:24:43 34° 294° (WNW) 09:32:01 435.465 / 435.565
CINEMA 3 05 Aug 09:21:31 09:25:36 28° 94° (E) 09:29:50 145.822/145.860
CUBEBUG 2 05 Aug 09:23:09 09:25:29 14° 87° (E) 09:28:04 437.445
AIST 2 05 Aug 09:26:51 09:30:41 34° 243° (WSW) 09:34:25 435.215
COMPASS 1 05 Aug 09:28:35 09:32:23 32° 95° (E) 09:36:12 437.405
Cubesat XI-IV 05 Aug 09:39:51 09:41:15 11° 306° (NW) 09:42:24 437.490
M-CUBED/EXP-1 PRIME 05 Aug 09:42:40 09:46:53 77° 252° (WSW) 09:51:29 437.505
DOVE 4 05 Aug 09:45:12 09:49:55 86° 284° (WNW) 09:54:55 437.250
TIGRISAT 05 Aug 09:47:00 09:50:28 24° 65° (ENE) 09:54:06 435.000
ANTELSAT 05 Aug 09:50:36 09:54:16 26° 66° (ENE) 09:58:05 437.575/2403.000
SEEDS 05 Aug 09:50:59 09:55:16 72° 101° (E) 09:59:30 437.485
ZACube-1 05 Aug 09:59:17 10:02:31 19° 90° (E) 10:05:53 437.345
POPSAT HIP 1 05 Aug 10:00:38 10:02:33 13° 62° (ENE) 10:04:39 437.405
CUTE 1.7 + AOD 2 05 Aug 10:01:23 10:05:42 72° 284° (WNW) 10:09:56 437.475
AAUSAT CUBESAT 2 05 Aug 10:05:41 10:09:54 70° 101° (E) 10:14:04 437.432
AUBIESAT-1 05 Aug 10:07:42 10:11:49 49° 256° (WSW) 10:16:14 437.475
QB50P2 05 Aug 10:08:46 10:11:21 17° 63° (ENE) 10:14:05 145.880/145.840
CANX-2 05 Aug 10:10:36 10:14:48 51° 288° (WNW) 10:18:57 2200.000
HO-68 05 Aug 10:15:36 10:22:49 78° 289° (WNW) 10:30:00 435.675
FUNcube-1 05 Aug 10:18:21 10:22:17 28° 94° (E) 10:26:18 145.935
PCSat 05 Aug 10:19:02 10:23:44 29° 317° (NW) 10:28:23 145.827
GOMX 1 05 Aug 10:19:47 10:23:42 27° 292° (WNW) 10:27:44 467.674
YUBILEINY 05 Aug 10:19:53 10:27:39 34° 66° (ENE) 10:35:34 435.215
Oscar 11 05 Aug 10:22:56 10:27:10 48° 99° (E) 10:31:23 145.826/435.025
DUCHIFAT 1 05 Aug 10:27:09 10:30:24 23° 66° (ENE) 10:33:46 145.980
UWE-3 05 Aug 10:32:44 10:37:16 52° 99° (E) 10:41:52 435.000/436.395/437.385
NANOSAT C BR1 05 Aug 10:33:05 10:36:35 27° 67° (ENE) 10:40:09 145.865
QB50P1 05 Aug 10:33:45 10:37:18 28° 68° (ENE) 10:40:55 145.935-145.965
BRITE-PL 05 Aug 10:33:55 10:36:08 13° 297° (WNW) 10:38:14 437.365/2234.400
O/OREOS (USA 219) 05 Aug 10:38:21 10:42:56 70° 64° (ENE) 10:47:31 437.305
UNISAT 6 05 Aug 10:41:07 10:45:30 83° 78° (ENE) 10:50:04 437.425
SO-50 05 Aug 10:46:37 10:50:23 21° 326° (NW) 10:54:09 436.795
DELFI C3 05 Aug 10:54:23 10:58:27 73° 102° (ESE) 11:02:28 145.870
AISAT 05 Aug 10:56:31 10:58:12 12° 87° (E) 11:00:07 437.250
CUBEBUG 2 05 Aug 10:58:02 11:02:43 71° 285° (WNW) 11:07:27 437.445
CINEMA 3 05 Aug 10:58:29 11:02:51 37° 290° (WNW) 11:07:19 145.822/145.860
Cosmos 2491 05 Aug 10:59:58 11:06:31 25° 81° (E) 11:13:21 435.465 / 435.565
DX 1 05 Aug 11:00:45 11:04:02 21° 93° (E) 11:07:25 434.975-435.025
COMPASS 1 05 Aug 11:04:26 11:07:56 25° 293° (WNW) 11:11:20 437.405
BUGSAT 1 05 Aug 11:13:11 11:16:59 43° 71° (ENE) 11:20:50 437.445
POLYITAN 1 05 Aug 11:18:35 11:22:47 83° 76° (ENE) 11:27:02 437.675
TIGRISAT 05 Aug 11:22:55 11:27:01 38° 263° (W) 11:31:14 435.000
AIST 1 05 Aug 11:23:35 11:27:21 30° 91° (E) 11:31:10
DOVE 4 05 Aug 11:25:14 11:27:07 12° 299° (WNW) 11:28:50 437.250
ANTELSAT 05 Aug 11:26:54 11:30:57 34° 265° (W) 11:35:03 437.575/2403.000
SEEDS 05 Aug 11:28:29 11:30:32 13° 298° (WNW) 11:32:24 437.485
VELOX 1 05 Aug 11:32:28 11:36:14 27° 95° (E) 11:40:03 145.980
POPSAT HIP 1 05 Aug 11:33:45 11:37:55 69° 258° (WSW) 11:42:08 437.405
ZACube-1 05 Aug 11:34:44 11:39:09 49° 288° (WNW) 11:43:35 437.345
HUMSAT D 05 Aug 11:42:45 11:47:07 89° 288° (WNW) 11:51:27 437.325/437.525
QB50P2 05 Aug 11:42:45 11:46:53 53° 260° (W) 11:51:01 145.880/145.840
AAUSAT CUBESAT 2 05 Aug 11:42:57 11:44:59 13° 298° (WNW) 11:46:50 437.432
Oscar 19 05 Aug 11:46:53 11:47:30 10° 55° (NE) 11:48:23 437.125/150
50 SAT 05 Aug 11:51:42 11:55:37 53° 100° (E) 11:59:29 437.505
FUNcube-1 05 Aug 11:54:31 11:58:37 33° 291° (WNW) 12:02:41 145.935
Oscar 11 05 Aug 11:59:55 12:03:03 19° 296° (WNW) 12:06:02 145.826/435.025
Cosmos 2504 05 Aug 12:00:19 12:06:00 20° 58° (ENE) 12:12:08 435.465 / 435.565
UKube-1 05 Aug 12:00:38 12:04:59 81° 103° (ESE) 12:09:18 .
DUCHIFAT 1 05 Aug 12:02:12 12:06:03 35° 263° (W) 12:09:55 145.980
ESTCUBE 1 05 Aug 12:02:33 12:06:48 41° 98° (E) 12:11:03 437.505/2401.250
HO-68 05 Aug 12:04:50 12:09:34 19° 308° (NW) 12:14:04 435.675
NANOSAT C BR1 05 Aug 12:08:38 12:12:21 30° 265° (W) 12:16:03 145.865
QB50P1 05 Aug 12:09:26 12:13:07 29° 265° (W) 12:16:47 145.935-145.965
UWE-3 05 Aug 12:10:05 12:13:28 20° 296° (WNW) 12:16:46 435.000/436.395/437.385
YUBILEINY 05 Aug 12:16:25 12:25:05 61° 268° (W) 12:33:40 435.215
O/OREOS (USA 219) 05 Aug 12:19:30 12:21:51 14° 260° (W) 12:23:59 437.305
UNISAT 6 05 Aug 12:22:01 12:23:03 10° 275° (W) 12:23:48 437.425
CUBEBUG 1 05 Aug 12:30:10 12:34:30 66° 102° (ESE) 12:38:49 437.445
AISAT 05 Aug 12:30:56 12:35:21 72° 287° (WNW) 12:39:45 437.250
DELFI C3 05 Aug 12:31:22 12:32:59 12° 298° (WNW) 12:34:25 145.870
DX 1 05 Aug 12:36:23 12:40:28 40° 291° (WNW) 12:44:31 434.975-435.025
TISAT 1 05 Aug 12:41:40 12:44:23 17° 90° (E) 12:47:13 437.305
SPROUT 05 Aug 12:47:58 12:51:49 32° 96° (E) 12:55:43 437.525
BUGSAT 1 05 Aug 12:50:01 12:52:44 17° 269° (W) 12:55:18 437.445
Cosmos 2491 05 Aug 12:53:50 13:02:37 75° 281° (W) 13:11:23 435.465 / 435.565
AIST 1 05 Aug 13:01:23 13:05:02 25° 289° (WNW) 13:08:37
VELOX 1 05 Aug 13:08:53 13:12:48 32° 292° (WNW) 13:16:41 145.980
AO-7 05 Aug 13:11:13 13:14:04 12° 38° (NE) 13:17:19 29.400- 29.500
ITAMSAT 1 05 Aug 13:15:12 13:18:40 19° 60° (ENE) 13:22:17 435.822/435.867
Gurwin Techsat 1B 05 Aug 13:20:13 13:24:14 23° 62° (ENE) 13:28:24 435.225
Oscar 19 05 Aug 13:20:55 13:25:58 65° 73° (ENE) 13:31:05 437.125/150
HUMSAT D 05 Aug 13:20:57 13:22:13 11° 300° (WNW) 13:23:17 437.325/437.525
50 SAT 05 Aug 13:27:26 13:29:48 15° 296° (WNW) 13:32:02 437.505
UKube-1 05 Aug 13:38:44 13:40:33 12° 300° (WNW) 13:42:11 .
ESTCUBE 1 05 Aug 13:39:54 13:43:28 23° 295° (WNW) 13:46:55 437.505/2401.250
Cosmos 2504 05 Aug 13:51:13 13:59:44 81° 81° (E) 14:08:24 435.465 / 435.565
BEESAT 05 Aug 13:54:34 13:57:47 18° 90° (E) 14:01:09 436.000
CUBEBUG 1 05 Aug 14:07:58 14:10:24 14° 298° (WNW) 14:12:40 437.445
SWISSCUBE 05 Aug 14:15:11 14:19:24 31° 95° (E) 14:23:39 437.505
TISAT 1 05 Aug 14:16:22 14:20:26 47° 289° (WNW) 14:24:31 437.305
YUBILEINY 05 Aug 14:17:16 14:20:12 12° 288° (WNW) 14:22:27 435.215
JAS-2 05 Aug 14:17:56 14:23:38 34° 61° (ENE) 14:30:04 435.910
SPROUT 05 Aug 14:24:11 14:27:49 26° 293° (WNW) 14:31:23 437.525
CUSAT 1 05 Aug 14:35:03 14:39:25 52° 77° (ENE) 14:45:13 437.405
ITUPSAT 1 05 Aug 14:38:21 14:42:58 46° 99° (E) 14:47:33 437.325
DANDE 05 Aug 14:49:49 14:53:41 44° 77° (ENE) 14:58:51 436.750
ITAMSAT 1 05 Aug 14:52:30 14:57:41 69° 257° (WSW) 15:02:55 435.822/435.867
Cosmos 2491 05 Aug 14:55:37 15:01:23 18° 306° (NW) 15:06:43 435.465 / 435.565
AO-7 05 Aug 14:57:09 15:04:52 44° 60° (ENE) 15:12:41 29.400- 29.500
Gurwin Techsat 1B 05 Aug 14:58:41 15:03:53 56° 260° (W) 15:09:08 435.225
Oscar 19 05 Aug 15:02:29 15:05:53 17° 271° (W) 15:09:06 437.125/150
GONETS M04 05 Aug 15:03:16 15:08:02 16° 52° (NE) 15:13:14
KKS-1 05 Aug 15:05:50 15:08:34 16° 90° (E) 15:11:28 437.445
HORYU 2 05 Aug 15:12:36 15:16:22 28° 66° (ENE) 15:20:13 437.375
BEESAT 05 Aug 15:31:21 15:36:02 54° 289° (WNW) 15:40:40 436.000
PCSat 05 Aug 15:37:53 15:41:20 17° 33° (NNE) 15:44:55 145.827
Cosmos 2504 05 Aug 15:44:40 15:51:09 24° 279° (W) 15:57:23 435.465 / 435.565
SWISSCUBE 05 Aug 15:53:00 15:57:16 32° 293° (WNW) 16:01:27 437.505
SO-50 05 Aug 15:53:59 15:58:06 25° 37° (NE) 16:02:13 436.795
STARS 05 Aug 16:02:06 16:06:12 36° 97° (E) 16:10:19 437.465
JAS-2 05 Aug 16:02:13 16:08:25 52° 263° (W) 16:15:26 435.910
ITUPSAT 1 05 Aug 16:16:50 16:20:36 23° 296° (WNW) 16:24:14 437.325
CUSAT 1 05 Aug 16:18:24 16:21:55 20° 266° (W) 16:25:54 437.405
VERMONT LUNAR 05 Aug 16:18:54 16:20:02 12° 154° (SSE) 16:21:15 437.305
MOZHAYETS 4 05 Aug 16:31:26 16:34:28 18° 89° (E) 16:37:37
DANDE 05 Aug 16:33:39 16:36:46 19° 265° (W) 16:40:21 436.750
KKS-1 05 Aug 16:41:13 16:45:35 55° 288° (WNW) 16:49:58 437.445
HORYU 2 05 Aug 16:48:54 16:52:56 32° 264° (W) 16:56:58 437.375
AO-7 05 Aug 16:49:35 16:57:39 49° 260° (W) 17:05:41 29.400- 29.500
CUTE-I 05 Aug 16:57:58 17:01:14 17° 59° (ENE) 17:04:41 437.470
GONETS M04 05 Aug 16:58:17 17:06:59 69° 77° (ENE) 17:15:43
Cosmos 2499 05 Aug 17:11:53 17:18:45 26° 61° (ENE) 17:25:56 435.465 / 435.565
PCSat 05 Aug 17:20:21 17:25:48 71° 56° (NE) 17:31:13 145.827
SO-50 05 Aug 17:34:09 17:39:05 64° 238° (WSW) 17:43:53 436.795
STARS 05 Aug 17:38:51 17:42:30 25° 294° (WNW) 17:46:04 437.465
Cubesat XI-IV 05 Aug 17:41:35 17:46:27 38° 67° (ENE) 17:51:24 437.490
VERMONT LUNAR 05 Aug 17:53:23 17:56:09 28° 170° (S) 17:58:57 437.305
PHONESAT 2.4 05 Aug 17:54:14 17:54:45 10° 151° (SSE) 17:55:22 2401.200-2431.200
MOZHAYETS 4 05 Aug 18:07:33 18:12:04 53° 288° (WNW) 18:16:33
BRITE-PL 05 Aug 18:31:52 18:33:23 12° 62° (ENE) 18:35:04 437.365/2234.400
CUTE-I 05 Aug 18:35:22 18:40:44 80° 256° (WSW) 18:46:08 437.470
CUBESAT XI-V 05 Aug 18:38:34 18:42:38 30° 95° (E) 18:46:42 437.345
GONETS M04 05 Aug 18:56:04 19:03:13 28° 277° (W) 19:10:08
HO-68 05 Aug 19:00:51 19:06:01 23° 54° (NE) 19:11:24 435.675
Cosmos 2499 05 Aug 19:04:14 19:13:06 83° 263° (W) 19:21:57 435.465 / 435.565
PCSat 05 Aug 19:04:57 19:08:42 19° 253° (WSW) 19:12:15 145.827
PRISM 05 Aug 19:11:40 19:13:40 14° 89° (E) 19:15:50 437.425
DOVE 4 05 Aug 19:18:28 19:20:22 13° 62° (ENE) 19:22:27 437.250
Cubesat XI-IV 05 Aug 19:21:48 19:26:37 32° 265° (W) 19:31:24 437.490
CUTE 1.7 + AOD 2 05 Aug 19:23:08 19:24:51 12° 61° (ENE) 19:26:46 437.475
PHONESAT 2.4 05 Aug 19:29:01 19:32:03 27° 166° (SSE) 19:35:06 2401.200-2431.200
VERMONT LUNAR 05 Aug 19:29:36 19:32:29 31° 186° (S) 19:35:21 437.305
STRAND 1 05 Aug 19:31:14 19:35:44 31° 95° (E) 19:40:16 437.568
CANX-2 05 Aug 19:31:17 19:33:55 17° 64° (ENE) 19:36:42 2200.000
GOMX 1 05 Aug 19:52:20 19:56:17 45° 72° (ENE) 20:00:17 467.674
BRITE-PL 05 Aug 20:07:13 20:11:28 72° 258° (WSW) 20:15:38 437.365/2234.400
ISS 05 Aug 20:14:32 20:17:45 61° 147° (SSE) 20:20:59 145.825
CUBESAT XI-V 05 Aug 20:16:00 20:20:03 30° 292° (WNW) 20:24:01 437.345
CUTE-I 05 Aug 20:20:25 20:21:49 11° 276° (W) 20:22:51 437.470
COMPASS 1 05 Aug 20:21:47 20:25:28 30° 69° (ENE) 20:29:13 437.405
CUBEBUG 2 05 Aug 20:24:12 20:26:28 15° 62° (ENE) 20:28:55 437.445
CINEMA 3 05 Aug 20:25:57 20:29:32 29° 68° (ENE) 20:33:18 145.822/145.860
SEEDS 05 Aug 20:44:44 20:48:57 66° 75° (ENE) 20:53:14 437.485
PRISM 05 Aug 20:45:29 20:49:31 56° 288° (WNW) 20:53:30 437.425
HO-68 05 Aug 20:45:51 20:53:01 85° 254° (WSW) 21:00:15 435.675
RS-15 05 Aug 20:48:21 20:58:39 53° 114° (ESE) 21:09:27 29.354- 29.394
DOVE 4 05 Aug 20:53:33 20:57:39 65° 259° (W) 21:01:51 437.250
CUTE 1.7 + AOD 2 05 Aug 20:55:55 21:00:12 77° 257° (WSW) 21:04:32 437.475
ZACube-1 05 Aug 20:57:49 21:00:49 19° 64° (ENE) 21:03:58 437.345
AAUSAT CUBESAT 2 05 Aug 20:58:07 21:02:16 62° 74° (ENE) 21:06:28 437.432
Cosmos 2499 05 Aug 20:59:15 21:05:07 19° 282° (WNW) 21:10:36 435.465 / 435.565
CANX-2 05 Aug 21:05:14 21:09:28 55° 260° (W) 21:13:43 2200.000
PHONESAT 2.4 05 Aug 21:06:21 21:09:37 36° 183° (S) 21:12:53 2401.200-2431.200
VERMONT LUNAR 05 Aug 21:06:39 21:08:40 16° 202° (SSW) 21:10:39 437.305
Cosmos 2491 05 Aug 21:06:49 21:10:56 14° 50° (NE) 21:15:33 435.465 / 435.565
STRAND 1 05 Aug 21:10:19 21:14:59 36° 293° (WNW) 21:19:34 437.568
FUNcube-1 05 Aug 21:16:24 21:20:00 28° 67° (ENE) 21:23:46 145.935
Oscar 11 05 Aug 21:19:36 21:23:46 49° 72° (ENE) 21:28:00 145.826/435.025
UKube-1 05 Aug 21:24:57 21:26:05 11° 59° (ENE) 21:27:25 .
AIST 1 05 Aug 21:30:55 21:31:08 10° 62° (ENE) 21:31:35
UWE-3 05 Aug 21:32:00 21:36:08 53° 72° (ENE) 21:40:26 435.000/436.395/437.385
GOMX 1 05 Aug 21:32:03 21:34:47 16° 270° (W) 21:37:22 467.674
DELFI C3 05 Aug 21:43:12 21:47:12 58° 74° (ENE) 21:51:14 145.870
AUBIESAT-1 05 Aug 21:48:15 21:49:41 11° 90° (E) 21:51:22 437.475
